Flag for U.S.A. Weather past 2 weeks in Sevierville, Tennessee, U.S.A.

Now
63 °F

Mostly cloudy.


Feels Like: 63 °F
Forecast: 64 / 86 °F
Wind: No wind

Location: McGhee Tyson Airport

Current Time: Jul 25, 2014 at 8:14:16 AM

Latest Report: Jul 25, 2014 at 6:53 AM


Visibility: 10 mi

Pressure: 30.03 "Hg

Humidity: 97%

Dew point: 62 °F

Location of SeviervilleLocation

Historic Weather in Sevierville — Graph

°F

Sevierville temperature yesterday

Maximum temperature yesterday: 85 °F (at 4:53 PM)
Minimum temperature yesterday: 66 °F (at 11:53 PM)
Average temperature yesterday: 75 °F

Past Weeks' High & Low Weather Summary

 TemperatureHumidityPressure
High92 °F (Jul 14, 4:53 PM)100% (Jul 18, 11:59 PM)30.19 "Hg (Jul 18, 11:59 PM)
Low57 °F (Jul 17, 4:53 AM)32% (Jul 11, 4:53 PM)29.81 "Hg (Jul 15, 4:53 PM)
Average75 °F76%30.02 "Hg
* Reported Jul 10 6:53 AM — Jul 25 6:53 AM, Sevierville, Weather by CustomWeather, © 2014

Note: Actual official high and low records may vary slightly from our data, if they occured in-between our weather recording intervals... More about our weather records

Advertising

Sevierville weather history for previous 24 hours

 ConditionsComfort  
Time TempWeatherWind HumidityBarometerVisibility
6:53 AM
Jul 25
63 °FMostly cloudy.No wind97%30.03 "Hg10 mi
5:53 AM63 °FClear.No wind93%30.01 "Hg10 mi
4:53 AM63 °FClear.3 mph97%29.98 "Hg10 mi
3:53 AM64 °FClear.6 mph97%29.97 "Hg10 mi
2:53 AM65 °FClear.5 mph94%29.98 "Hg10 mi
1:53 AM66 °FOvercast.5 mph90%30.00 "Hg10 mi
12:53 AM66 °FClear.5 mph93%30.01 "Hg10 mi
11:53 PM
Jul 24
66 °FClear.3 mph93%30.00 "Hg9 mi
10:53 PM68 °FPassing clouds.8 mph87%30.01 "Hg10 mi
9:53 PM70 °FPassing clouds.9 mph81%29.98 "Hg10 mi
8:53 PM72 °FScattered clouds.8 mph76%29.96 "Hg10 mi
7:53 PM74 °FPartly sunny.12 mph74%29.94 "Hg10 mi
6:53 PM75 °FPartly sunny.6 mph88%29.92 "Hg10 mi
6:02 PM75 °FThundershowers. Broken clouds.No wind85%29.94 "Hg10 mi
5:53 PM73 °FThunderstorms. Fog.3 mph84%29.92 "Hg4 mi
4:53 PM85 °FScattered clouds.10 mph55%29.89 "Hg10 mi
3:53 PM84 °FBroken clouds.7 mph61%29.89 "Hg10 mi
2:53 PM84 °FScattered clouds.9 mph61%29.90 "Hg10 mi
1:53 PM83 °FScattered clouds.9 mph63%29.92 "Hg10 mi
12:53 PM80 °FBroken clouds.8 mph69%29.94 "Hg10 mi
11:53 AM80 °FBroken clouds.10 mph71%29.95 "Hg10 mi
10:53 AM78 °FBroken clouds.9 mph79%29.95 "Hg10 mi
9:53 AM75 °FMore clouds than sun.7 mph88%29.96 "Hg10 mi
8:53 AM73 °FMostly cloudy.7 mph94%29.95 "Hg10 mi
Weather by CustomWeather, © 2014

See weather overviewHow to use our weather pages